Location: Hines Landing
(37.5578°N, 89.5265°W)
Time: 06:16:16
(UTC+00:00)

Daily predictions for brighter satellites

Satellite Brightness Start Highest point End
(mag) Time Altitude Azimuth Time Altitude Azimuth Time Altitude Azimuth
COSMO-SKYMED 1 3.0 12:00:33 10° SSW 12:04:23 38° W 12:08:15 10° NNW
Cosmos 2333 Rocket 3.7 12:00:23 10° N 12:05:39 35° ENE 12:10:51 10° SE
Cosmos 1606 Rocket 4.0 12:03:40 10° NNW 12:07:47 39° W 12:11:52 10° SSW
Cosmos-2242 3.6 12:03:56 10° N 12:08:06 57° E 12:12:14 10° SSE
NOSS 2-1 (D) 3.8 12:04:52 10° NNW 12:08:39 69° ENE 12:13:53 10° SE
NOSS 2-1 (E) 4.1 12:07:59 10° NNW 12:11:43 57° ENE 12:16:48 10° SE
Okean 1 4.0 12:09:21 10° N 12:12:48 48° E 12:16:15 10° SSE
USA 59 Rocket 0.2 12:10:10 10° NNW 12:14:03 87° ENE 12:19:28 10° SSE
Meteor 2-20 Rocket 4.5 12:10:48 10° N 12:16:36 78° E 12:22:17 10° S
Cosmos 2026 Rocket 4.0 12:11:32 10° SSW 12:17:25 53° W 12:23:22 10° N
CORIOLIS 4.4 12:12:10 10° NNE 12:17:34 79° ESE 12:22:57 10° S
Cosmos 841 Rocket 4.3 12:17:30 10° WSW 12:21:58 28° WNW 12:26:29 10° N
Meteor 2-3 Rocket 4.2 12:17:23 10° SW 12:22:43 39° WNW 12:28:03 10° N
Cosmos 2360 Rocket 3.8 12:17:57 10° N 12:22:58 32° ENE 12:27:56 10° ESE
Cosmos 1484 Rocket 3.5 12:20:46 10° NNW 12:23:37 25° WNW 12:26:27 10° SW
Meteor 1-26 Rocket 4.2 12:18:55 10° N 12:24:27 87° W 12:30:08 10° S
SJ-12 4.2 12:21:15 10° NNE 12:25:02 65° E 12:28:49 10° S
SAR-Lupe-4 3.8 12:24:12 10° NNE 12:27:45 76° ESE 12:31:17 10° S
COSMOS 2455 3.1 12:23:01 10° NW 12:28:51 54° WSW 12:34:40 10° S
CENTAUR R/B 3.3 22:55:37 10° WSW 23:00:41 43° NW 23:06:58 10° NNE
Thor Agena Rocket 3.6 22:59:35 10° SSE 23:04:44 61° ENE 23:09:52 10° N
Cosmos 1544 Rocket 3.9 23:02:31 10° SSE 23:06:39 43° E 23:10:50 10° NNE
CZ-2D R/B 3.9 23:04:23 10° SE 23:06:55 22° ENE 23:09:26 10° NNE
BREEZE M DEB (TANK) 2.3 23:04:39 10° WSW 23:08:18 61° NW 23:10:22 10° NE
Cosmos 1634 Rocket 4.1 23:02:45 10° S 23:08:57 90° SW 23:15:11 10° N
ATLAS 2AS CENTAUR R/B 4.3 23:07:03 10° NW 23:13:13 40° WSW 23:19:25 10° S
Cosmos 2026 Rocket 4.3 23:08:18 10° N 23:14:31 74° W 23:20:48 10° S
Cosmos 158 Rocket 4.4 23:09:48 10° NNW 23:14:46 64° WSW 23:19:35 10° S
Lacrosse 5 rocket 3.1 23:13:47 10° W 23:16:45 22° NW 23:19:42 10° NNE
Cosmos 1782 2.7 23:14:16 10° S 23:17:46 53° E 23:21:18 10° NNE
Meteor 1-28 Rocket 4.5 23:15:35 10° N 23:18:41 36° WNW 23:21:45 10° SW
Cosmos 1743 3.5 23:19:30 10° NNE 23:22:06 22° ENE 23:24:40 10° SE
Cosmos 2360 4.4 23:17:43 10° S 23:23:14 54° ESE 23:28:48 10° NNE
NOSS 2-2 (D) 3.4 23:20:22 10° SW 23:24:07 60° WNW 23:27:12 10° NNE
SL-08 ROCKET BODY 4.5 23:20:05 10° N 23:25:55 56° E 23:31:47 10° SSE
Cosmos 2151 3.9 23:23:15 10° NNE 23:26:45 26° ENE 23:30:14 10° SE
IRS-P3 4.5 23:22:48 10° SE 23:27:46 42° ENE 23:32:46 10° N
NOSS 2-2 (E) 3.1 23:24:41 10° SW 23:28:30 72° WNW 23:31:38 10° NNE
Cosmos 2279 Rocket 4.0 23:22:48 10° S 23:29:00 89° E 23:35:15 10° N
Cosmos 1602 Rocket 4.2 23:28:21 10° NNE 23:32:20 33° ENE 23:36:16 10° SE
Cosmos 44 3.9 23:29:22 10° NW 23:34:40 70° WSW 23:39:59 10° SSE
Cosmos 2180 Rocket 4.4 23:31:42 10° S 23:37:46 72° E 23:43:52 10° N
IRIDIUM 114 4.5 23:32:53 10° N 23:37:58 50° E 23:43:00 10° SSE
CORIOLIS 4.3 23:33:07 10° S 23:38:26 76° WSW 23:43:47 10° NNW
Cosmos 2227 Rocket 3.8 23:35:37 10° NNE 23:38:30 14° NE 23:38:44 14° NE
ATLAS CENTAUR R/B 3.0 23:37:35 10° NNE 23:37:43 10° NNE 23:37:43 10° NNE
CZ-4C R/B 3.9 23:33:34 10° N 23:39:23 26° NE 23:45:08 13° E
YAOGAN 1 3.6 23:39:25 10° ESE 23:42:42 22° ENE 23:46:01 10° NNE
Lacrosse 4 Rocket 4.0 23:43:49 10° W 23:45:49 13° NW 23:47:50 10° NNW
NOSS 3-2 (C) 2.9 23:42:15 10° SSW 23:47:00 68° ESE 23:51:40 14° NE
IRIDIUM 103 4.3 23:41:58 10° N 23:47:10 62° E 23:52:18 10° SSE
COSMO-SKYMED 1 3.2 23:44:26 15° NE 23:47:15 31° E 23:50:55 10° SSE
SMAP 3.8 23:45:07 10° S 23:49:41 58° W 23:54:17 10° NNW
Cosmos 1777 Rocket 3.9 23:44:54 10° S 23:50:08 73° ESE 23:55:22 10° NNE
NOSS 3-2 (A) 4.1 23:45:44 10° WSW 23:50:19 40° NW 23:55:41 10° NNE
Gbstr 26 Del rocket 3.3 23:48:41 10° SSW 23:52:37 42° SE 23:54:18 26° E
Cosmos 1570 Rocket 4.0 23:47:50 10° NNW 23:53:12 84° ENE 23:58:30 10° SSE
Cosmos 1697 Rocket 3.0 23:49:01 10° S 23:54:16 43° ESE 23:58:04 18° NE
